Location: Chisone
(44.8167°N, 7.4167°E)
Time: 10:29:28
(UTC+00:00)

Daily predictions for brighter satellites

Satellite Brightness Start Highest point End
(mag) Time Altitude Azimuth Time Altitude Azimuth Time Altitude Azimuth
Cosmos 2142 Rocket 4.5 16:12:30 10° N 16:18:38 72° E 16:24:46 10° SSE
ATLAS 2AS CENTAUR R/B 3.7 16:13:17 10° NNW 16:19:02 26° NNE 16:24:33 10° E
Aureole 3 Rocket 3.8 16:18:19 10° NNW 16:22:25 49° W 16:25:38 10° SSW
Cosmos 1603 4.3 16:19:07 10° NNW 16:24:21 36° NE 16:29:30 10° ESE
SJ-11-01 4.2 16:19:46 10° SSE 16:24:24 79° ENE 16:29:05 10° N
Cosmos 2279 Rocket 4.1 16:18:36 10° N 16:24:52 88° E 16:31:05 10° S
Meteor 1-31 Rocket 3.3 16:23:23 10° SE 16:26:42 32° ENE 16:30:03 10° N
SL-08 RB Rocket 4.0 16:23:14 10° S 16:27:40 74° WSW 16:32:13 10° NNW
USA 276 1.9 16:25:38 10° W 16:27:58 50° NNW 16:30:22 10° ENE
ISS -2.7 16:28:13 10° WNW 16:31:29 50° SW 16:34:44 10° SE
Cosmos 1602 3.7 16:28:35 10° N 16:32:15 53° ENE 16:35:54 10° SSE
Cosmos 407 Rocket 3.9 16:30:38 10° N 16:35:27 38° ENE 16:40:13 10° SE
Cosmos 1500 3.2 16:32:37 10° NNW 16:36:08 75° W 16:39:39 10° S
Lacrosse 5 2.8 16:31:59 10° S 16:36:29 34° SE 16:40:46 11° ENE
SL-16 R/B 3.6 16:31:54 10° NW 16:37:15 43° WSW 16:42:33 10° S
AQUARIUS 4.4 16:33:14 10° SE 16:37:28 45° ENE 16:41:44 10° N
YAOGAN 11 4.2 16:33:05 10° NNE 16:37:39 77° ESE 16:42:11 10° S
Nadezhda 4 Rocket 4.0 16:37:15 10° S 16:43:16 61° E 16:49:18 10° NNE
Cosmos 1943 3.1 16:41:42 10° NNW 16:47:21 73° ENE 16:52:59 10° SSE
Cosmos 2251 Rocket 3.7 16:42:07 10° NNW 16:47:22 52° ENE 16:52:36 10° SE
Cosmos 1782 3.7 16:44:33 10° SSE 16:47:51 27° E 16:51:09 10° NNE
RESURS DK-1 3.9 16:48:47 10° N 16:51:25 16° NE 16:52:18 15° ENE
ERS-2 4.0 16:51:22 10° SSW 16:53:56 27° W 16:56:30 10° NW
ATLAS CENTAUR R/B 2.8 16:50:07 10° NW 16:54:26 85° NE 17:03:01 10° SE
USA 307 3.1 16:50:59 10° WNW 16:54:50 63° SW 16:58:33 10° SE
Radarsat 4.5 16:50:53 10° SSE 16:56:04 80° ENE 17:01:17 10° NNW
USA 234 3.6 16:53:07 13° ENE 16:58:52 52° SE 17:05:12 10° SSW
Radarsat Rocket 4.3 16:53:50 10° SE 16:59:14 42° ENE 17:04:57 10° N
Cosmos 1023 Rocket 4.4 16:55:59 10° NNW 17:01:10 89° ENE 17:06:15 10° SSE
Helios 1B rocket 4.0 16:57:50 10° SSW 17:01:29 37° W 17:05:10 10° NNW
SKYMED 2 4.4 16:59:10 12° NE 17:02:34 30° E 17:06:23 10° SSE
CZ-4B R/B 3.6 17:00:50 10° SSE 17:04:25 85° WSW 17:08:05 10° NNW
Helios 1A 3.1 17:03:52 10° NNE 17:07:56 51° E 17:11:57 10° S
Cosmos 1190 Rocket 4.3 17:03:32 10° N 17:08:36 43° ENE 17:13:38 10° SE
APEX 2.9 17:07:47 10° SW 17:10:43 56° WNW 17:12:36 18° NNE
Cosmos 1844 4.1 17:07:58 10° S 17:13:22 43° ESE 17:17:13 18° NE
Cosmos 1818 3.5 17:07:57 10° SSW 17:13:23 85° ESE 17:17:51 16° NE
USA 305 3.4 17:13:11 10° WNW 17:16:56 52° SW 17:20:38 10° SE
Cosmos 1812 Rocket 3.5 17:12:46 10° S 17:17:06 85° W 17:21:30 10° N
Cosmos 1833 Rocket 4.4 17:15:10 10° N 17:17:43 14° NE 17:17:43 14° NE
Cosmos 1812 3.2 17:15:55 10° SSW 17:19:32 57° W 17:23:10 10° N
Cosmos 1627 Rocket 4.5 17:15:45 10° S 17:21:56 64° E 17:28:14 10° NNE
Cosmos 1420 Rocket 4.1 17:23:53 10° S 17:28:58 55° ESE 17:32:12 22° NE
Cosmos 1140 Rocket 4.2 17:24:07 10° NNW 17:29:10 55° WSW 17:34:09 10° S
COSMOS 2455 3.7 17:25:36 10° SSE 17:30:38 29° ESE 17:31:43 27° E
Cosmos 192 4.2 17:26:12 10° S 17:31:02 71° ESE 17:34:20 21° NNE
Cosmos 2344 3.5 17:23:44 10° SW 17:31:24 86° NW 17:37:20 17° NE
Cosmos 220 Rocket 3.9 17:27:34 10° NNW 17:31:51 61° ENE 17:36:02 10° SSE
SL-08 R/B 3.5 17:30:21 27° NE 17:32:24 44° E 17:36:51 10° S
CZ-4 R/B 4.3 17:29:39 10° SSE 17:33:41 67° ENE 17:37:46 10° N
Lacrosse 4 Rocket 2.8 17:30:36 10° NW 17:34:39 40° WSW 17:38:35 10° S
Cosmos 1624 Rocket 4.0 17:32:29 10° S 17:37:36 59° ESE 17:40:14 28° NE
ADEOS 3.5 17:35:24 10° SSE 17:40:30 59° ENE 17:45:39 10° N
Cosmos 1844 Rocket 2.6 17:36:31 10° SSW 17:42:04 82° ESE 17:45:40 23° NNE
Cosmos 2263 Rocket 4.1 17:38:28 10° WSW 17:43:00 25° NW 17:47:34 10° N
CBERS 1 LM4 rocket 4.3 17:38:39 10° SSE 17:43:28 86° WSW 17:48:13 10° NNW
COSMO-SKYMED 1 2.5 17:47:45 20° N 17:50:46 84° WNW 17:55:06 10° SSW
Cosmos 2221 2.3 17:46:34 10° S 17:50:47 75° E 17:52:01 44° NNE
Meteor 1-26 Rocket 4.1 17:47:38 10° S 17:53:09 78° E 17:58:23 13° NNE
CZ-4B R/B 4.2 17:50:43 10° S 17:55:40 54° WSW 18:00:32 10° NNW
Timation 2 Rocket 3.8 17:51:12 10° SSW 17:57:10 86° WNW 18:00:42 27° NNE
Cosmos 1933 4.1 17:55:13 10° SSW 17:59:05 50° WNW 18:01:55 17° N
Meteor 1-5 Rocket 4.3 17:56:40 10° NNW 18:02:25 83° W 18:08:18 10° S
Cosmos 676 Rocket 3.8 17:57:30 10° NNW 18:02:49 75° ENE 18:05:57 25° SSE
Cosmos 1553 Rocket 3.8 17:59:11 10° N 18:05:31 76° E 18:11:42 10° SSE
ATLAS 2AS CENTAUR R/B 2.5 18:04:04 10° NW 18:10:59 83° NE 18:14:14 33° SE
Lacrosse 5 2.3 18:14:23 10° WSW 18:19:18 52° NW 18:19:59 49° N
Cosmos 1766 Rocket 4.2 18:17:11 10° NNW 18:21:26 53° W 18:25:37 10° S
RESURS DK-1 3.7 18:25:34 10° NNW 18:28:03 34° NW 18:28:03 34° NW
Cosmos 2056 Rocket 4.3 18:26:37 10° SW 18:31:50 49° WNW 18:33:57 32° N
BREEZE-M DEB 4.5 18:16:49 10° WSW 18:40:25 88° NNW 18:41:44 65° ENE
USA 234 3.6 18:40:29 48° NNE 18:41:54 57° NNW 18:48:16 10° WSW
CZ-4B DEB 4.3 18:40:22 47° S 18:41:59 72° WSW 18:47:34 10° NNW
BREEZE-M DEB (TANK) 4.5 18:44:06 10° WSW 18:49:31 87° SSE 18:54:03 48° ENE
COSMOS 2455 3.7 19:10:21 10° SW 19:14:54 45° W 19:14:54 45° W
